WA9LT Weather Reports


time (UTC)temp
F
wind
direction
speed
knots
gust
knots
rain 1hr
in
rain 24hr
in
rain mn
in
humidity
%
barometer
mb
20260906145622 75 94 2.6 4.3 0.00 0.00 0.00 69
20260906145316 74 333 1.7 2.6 0.00 0.00 0.00 69
20260906144121 73 77 1.7 2.6 0.00 0.00 0.00 69
20260906142621 72 58 0.9 1.7 0.00 0.00 0.00 69
20260906141122 71 67 0.9 5.2 0.00 0.00 0.00 69
20260906135622 71 330 0.0 0.0 0.00 0.00 0.00 69
20260906134122 70 45 0.9 1.7 0.00 0.00 0.00 69
20260906132621 69 68 2.6 6.1 0.00 0.00 0.00 69
20260906132221 69 41 0.9 0.9 0.00 0.00 0.00 69
20260906131121 69 41 0.9 3.5 0.00 0.00 0.00 69
20260906125621 68 79 4.3 5.2 0.00 0.00 0.00 69
20260906124123 68 72 0.9 3.5 0.00 0.00 0.00 69
20260906122622 68 25 0.9 0.9 0.00 0.00 0.00 69
20260906121121 68 43 0.0 1.7 0.00 0.00 0.00 69
20260906115621 67 25 1.7 3.5 0.00 0.00 0.00 69
20260906114122 67 80 0.9 1.7 0.00 0.00 0.00 69
20260906112622 67 41 0.0 0.0 0.00 0.00 0.00 69
20260906112333 67 65 0.9 2.6 0.00 0.00 0.00 69
20260906111121 67 65 0.0 0.9 0.00 0.00 0.00 69
20260906105623 68 26 0.0 0.9 0.00 0.00 0.00 69
20260906105215 68 74 0.9 1.7 0.00 0.00 0.00 69
20260906104122 68 38 0.9 1.7 0.00 0.00 0.00 69
20260906102622 68 331 0.9 3.5 0.00 0.00 0.00 69
20260906102324 68 93 1.7 2.6 0.00 0.00 0.00 69
20260906101123 68 75 1.7 5.2 0.00 0.00 0.00 69
20260906095623 68 110 0.0 0.0 0.00 0.00 0.00 69
20260906095203 69 315 0.0 0.0 0.00 0.00 0.00 69
20260906094122 69 37 0.0 0.0 0.00 0.00 0.00 69
20260906092622 69 41 0.0 0.9 0.00 0.00 0.00 69
20260906092331 70 40 0.0 0.0 0.00 0.00 0.00 69
20260906091123 70 34 0.0 0.0 0.00 0.00 0.00 69
20260906085623 70 83 0.0 0.0 0.00 0.00 0.00 69
20260906085432 70 65 0.0 0.0 0.00 0.00 0.00 69
20260906084121 70 16 0.0 1.7 0.00 0.00 0.00 69
20260906082621 70 15 0.9 0.9 0.00 0.00 0.00 69
20260906082327 70 44 1.7 4.3 0.00 0.00 0.00 69
20260906081122 70 25 1.7 1.7 0.00 0.00 0.00 69
20260906075622 70 23 0.0 0.0 0.00 0.00 0.00 69
20260906074121 71 48 0.0 0.9 0.00 0.00 0.00 69
20260906072622 71 65 0.9 3.5 0.00 0.00 0.00 69
20260906072427 71 81 2.6 1.7 0.00 0.00 0.00 69
20260906071123 71 200 1.7 0.9 0.00 0.00 0.00 69
20260906065623 71 65 1.7 4.3 0.00 0.00 0.00 69
20260906065338 72 98 0.9 3.5 0.00 0.00 0.00 69
20260906064121 71 59 0.9 0.9 0.00 0.00 0.00 69
20260906062622 71 70 2.6 4.3 0.00 0.00 0.00 69
20260906062322 71 55 2.6 4.3 0.00 0.00 0.00 69
20260906061122 72 71 2.6 5.2 0.00 0.00 0.00 69
20260906055622 72 76 0.9 4.3 0.00 0.00 0.00 69
20260906054121 72 124 0.9 0.9 0.00 0.00 0.00 69
20260906052621 73 48 0.0 0.0 0.00 0.00 0.00 69
20260906052320 73 8 0.0 0.0 0.00 0.00 0.00 69
20260906051122 73 69 1.7 3.5 0.00 0.00 0.00 69
20260906045622 73 16 0.9 1.7 0.00 0.00 0.00 69
20260906045606 73 66 1.7 5.2 0.00 0.00 0.00 69
20260906044121 73 48 1.7 1.7 0.00 0.00 0.00 69
20260906042621 73 113 1.7 4.3 0.00 0.00 0.00 69
20260906041122 74 67 2.6 5.2 0.00 0.00 0.00 69
20260906035622 74 285 0.0 0.9 0.00 0.00 0.00 69
20260906034122 73 56 0.0 1.7 0.00 0.00 0.00 69
20260906032622 73 124 0.0 0.0 0.00 0.00 0.00 69
20260906032331 73 124 0.0 0.0 0.00 0.00 0.00 69
20260906031123 73 124 0.0 0.0 0.00 0.00 0.00 69
20260906025623 73 124 0.0 0.0 0.00 0.00 0.00 69
20260906025401 73 124 0.0 0.0 0.00 0.00 0.00 69
20260906024122 73 124 0.0 0.0 0.00 0.00 0.00 69
20260906022623 73 337 0.0 0.0 0.00 0.00 0.00 69
20260906022524 74 337 0.0 0.0 0.00 0.00 0.00 69
20260906021122 74 337 0.0 0.0 0.00 0.00 0.00 69
20260906015622 74 337 0.0 0.0 0.00 0.00 0.00 69
20260906014121 75 64 0.9 1.7 0.00 0.00 0.00 69
20260906012623 75 71 0.0 0.0 0.00 0.00 0.00 69
20260906012253 76 71 0.0 0.0 0.00 0.00 0.00 69
20260906011122 76 1 0.0 1.7 0.00 0.00 0.00 69
20260906005622 77 2 0.0 0.9 0.00 0.00 0.00 69
20260906004123 77 23 0.0 0.9 0.00 0.00 0.00 69
20260906002623 78 1 0.9 4.3 0.00 0.00 0.00 69
20260906001121 79 26 0.9 0.9 0.00 0.00 0.00 69
20260905235623 80 131 1.7 2.6 0.00 0.00 0.00 69
20260905235350 80 34 1.7 2.6 0.00 0.00 0.00 69
20260905234122 81 137 1.7 4.3 0.00 0.00 0.00 69
20260905232621 82 64 0.9 3.5 0.00 0.00 0.00 69
20260905232404 83 62 1.7 2.6 0.00 0.00 0.00 69
20260905231122 83 348 0.9 2.6 0.00 0.00 0.00 69
20260905225622 84 324 0.9 1.7 0.00 0.00 0.00 69
20260905225447 85 340 1.7 3.5 0.00 0.00 0.00 69
20260905224123 86 161 2.6 6.1 0.00 0.00 0.00 69
20260905222623 86 334 2.6 3.5 0.00 0.00 0.00 69
20260905222523 86 0 2.6 2.6 0.00 0.00 0.00 69
20260905221122 87 126 2.6 5.2 0.00 0.00 0.00 69
20260905215635 88 355 2.6 3.5 0.00 0.00 0.00 69
20260905215622 88 96 1.7 2.6 0.00 0.00 0.00 69
20260905214121 88 63 1.7 3.5 0.00 0.00 0.00 69
20260905212621 87 44 0.9 3.5 0.00 0.00 0.00 69
20260905212555 89 326 1.7 3.5 0.00 0.00 0.00 69
20260905211122 89 1 2.6 4.3 0.00 0.00 0.00 69
20260905205622 90 3 3.5 6.1 0.00 0.00 0.00 69
20260905205507 89 24 1.7 4.3 0.00 0.00 0.00 69
20260905204122 89 76 1.7 2.6 0.00 0.00 0.00 69
20260905202631 91 332 2.6 3.5 0.00 0.00 0.00 69
20260905202622 90 354 2.6 4.3 0.00 0.00 0.00 69
20260905201121 91 350 3.5 7.0 0.00 0.00 0.00 69
20260905195623 91 277 0.0 4.3 0.00 0.00 0.00 69
20260905195435 90 150 0.9 5.2 0.00 0.00 0.00 69
20260905194122 90 1 1.7 2.6 0.00 0.00 0.00 69
20260905192622 90 48 0.9 1.7 0.00 0.00 0.00 69
20260905192447 91 125 0.0 0.9 0.00 0.00 0.00 69
20260905191123 91 330 2.6 4.3 0.00 0.00 0.00 69
20260905185623 90 23 0.9 1.7 0.00 0.00 0.00 69
20260905185420 91 354 2.6 3.5 0.00 0.00 0.00 69
20260905184122 90 122 0.9 2.6 0.00 0.00 0.00 69
20260905182622 90 84 0.9 1.7 0.00 0.00 0.00 69
20260905182338 91 8 0.0 1.7 0.00 0.00 0.00 69
20260905181121 90 358 0.9 0.9 0.00 0.00 0.00 69
20260905175621 90 124 0.9 3.5 0.00 0.00 0.00 69
20260905175437 89 42 0.9 1.7 0.00 0.00 0.00 69
20260905174122 90 352 0.9 0.9 0.00 0.00 0.00 69
20260905172622 90 13 0.0 0.9 0.00 0.00 0.00 69
20260905171121 90 26 0.9 1.7 0.00 0.00 0.00 69
20260905165621 89 66 1.7 1.7 0.00 0.00 0.00 69
20260905164122 89 29 0.9 2.6 0.00 0.00 0.00 69
20260905162624 88 21 1.7 3.5 0.00 0.00 0.00 69
20260905161123 87 15 0.0 2.6 0.00 0.00 0.00 69
20260905155749 87 90 2.6 5.2 0.00 0.00 0.00 69
20260905155623 87 21 1.7 1.7 0.00 0.00 0.00 69
20260905154123 87 81 0.9 5.2 0.00 0.00 0.00 69
20260905152622 86 18 2.6 2.6 0.00 0.00 0.00 69
20260905151122 85 20 0.9 2.6 0.00 0.00 0.00 69